Find Starlink 31496

NORAD ID: 59211 Int'l Des: 2024-046 Owner: SPXS Country: US Constellation: starlink operational
LEOCIRCULAR

实时位置

正在加载3D地球...

关于 Starlink 31496

正在加载描述...

即将过境

Passes for default location (London). Set your location on the main map for personalized predictions.

高度历史

Loading altitude history...

两行轨道根数

1 59211U 24046L 26126.59468802 -.00003002 00000-0 -89354-4 0 9993
2 59211 53.1615 233.6992 0001129 84.4414 275.6716 15.30167789122087
Epoch: May 6, 2026 • Age: 6 hours

当前状态

高度 493.4 km
速度 7.62 km/s
星下点 -50.23°S, 49.76°W
发射日期 Mar 11, 2024
运行时间 2.1 years
类型 internet

技术详情

分类 Payload
质量 730.00 kg
干质量 700.00 kg
总质量 730.00 kg
长度 0.30 m
直径 4.10 m
跨度 29.00 m
形状 Box + pan
制造商 SPXS
平台类型 Starlink V2M
阶段状态 In Orbit
所有者/国家 SPXS/US

Most Searched